Probability
9 9 9 10 12 12 11 11 13 13 13 13 10 7 6 6 6 6 6 5 4 4 4 4 3 4 5 5 5 7 6 3 1 2 3 6 7 8 7 5 2 2 2
7 8 9 11 12 12 11 11 12 12 12 12 9 7 7 7 7 6 6 5 4 4 4 4 3 3 4 4 5 5 4 3 2 2 3 5 6 6 7 5 3 2 2
6 7 9 11 12 12 11 11 11 10 10 9 8 6 6 7 7 6 5 4 4 4 4 4 4 4 4 4 4 3 3 2 3 3 4 6 6 6 5 4 3 3 3
8 9 10 10 11 11 11 10 8 6 5 5 5 4 4 5 5 4 5 4 4 3 4 4 4 4 4 3 3 3 3 3 5 6 6 7 6 5 4 3 3 4 4
9 10 11 10 10 10 10 9 7 4 2 2 3 3 3 3 3 3 4 4 3 3 3 3 3 3 2 1 2 3 4 5 6 7 6 5 4 4 3 3 3 3 3
10 10 9 9 9 8 9 8 6 4 3 2 3 3 3 3 2 3 3 3 3 3 3 2 1 1 0 0 0 1 2 4 5 5 4 2 2 2 3 3 3 3 3
9 8 7 7 7 7 7 7 6 6 5 5 4 3 3 1 1 1 2 2 2 3 3 2 1 0 0 0 0 0 1 1 2 2 1 0 0 1 2 3 3 3 3
9 8 7 6 6 6 6 6 7 7 7 7 6 4 3 1 0 0 1 1 1 2 2 3 2 1 0 0 0 0 0 0 0 0 0 0 0 0 1 2 3 3 3
9 8 7 6 6 5 5 5 6 7 7 7 6 4 4 3 1 0 0 1 1 2 3 4 3 2 1 0 0 0 0 0 0 0 0 0 0 0 0 1 1 2 2
10 9 8 7 6 4 4 4 5 5 5 5 4 4 5 4 2 0 0 1 3 4 5 5 3 1 0 0 0 0 0 0 0 0 1 1 0 0 0 0 0 1 1
11 11 10 8 6 4 4 4 4 3 2 2 2 3 5 5 3 1 0 1 3 5 6 5 3 1 0 0 0 0 0 0 0 0 1 2 1 0 0 0 0 1 1
12 12 11 8 5 3 3 3 2 1 0 1 2 2 3 3 2 0 0 0 2 3 5 4 2 1 0 0 0 0 0 0 0 0 1 1 1 0 0 0 0 0 0
12 11 10 6 4 3 2 1 0 0 0 0 1 1 1 1 0 0 0 0 0 1 3 2 1 0 0 0 0 0 0 0 0 0 0 0 0 0 0 0 0 0 0
9 8 7 4 3 2 1 0 0 0 0 0 0 0 0 0 0 0 0 1 1 1 2 1 0 0 0 0 0 0 0 0 0 0 0 0 0 0 0 0 0 0 0
6 5 4 3 1 1 1 1 0 0 0 0 0 0 0 0 0 0 0 1 2 1 1 1 1 0 0 0 0 0 0 0 0 0 0 0 0 0 0 0 0 0 0
3 2 2 2 1 1 2 3 1 0 0 0 0 0 0 0 0 0 0 1 1 1 1 1 2 1 0 0 0 0 0 0 0 0 0 0 0 0 0 0 0 0 0
1 0 1 1 1 2 3 3 2 0 0 0 0 0 0 0 0 0 0 0 0 0 0 1 2 2 1 0 0 0 0 0 0 0 0 0 0 0 0 0 0 0 0
0 0 1 2 3 3 3 2 1 0 0 0 0 0 0 0 0 0 0 0 0 0 0 0 1 1 1 0 0 0 0 0 0 0 0 0 0 0 0 0 0 0 0
0 0 1 2 3 3 3 1 0 0 0 0 0 0 0 0 0 0 0 0 0 0 0 0 0 0 0 0 0 0 0 0 0 0 0 0 0 0 0 0 0 0 0
0 0 1 2 3 3 2 1 0 0 0 0 0 0 0 0 0 0 0 0 0 0 0 0 0 0 0 0 0 0 0 0 0 0 0 0 0 0 0 0 0 0 0
1 1 1 2 3 3 2 1 0 1 0 0 0 0 0 0 0 0 0 0 0 0 0 0 0 0 0 0 0 0 0 0 0 0 0 0 0 0 0 0 0 0 0
2 1 1 2 2 1 1 1 2 2 1 0 0 0 0 0 0 0 0 0 0 0 0 0 0 0 0 0 0 0 0 0 0 0 0 0 0 0 0 0 0 0 0
1 1 0 1 1 1 1 2 3 3 2 0 0 0 0 0 0 0 0 0 0 0 0 0 0 0 0 0 0 0 0 0 0 0 0 0 0 0 0 0 0 0 0
0 0 0 0 1 2 3 3 3 3 1 0 0 0 0 0 0 0 0 0 0 0 0 0 0 0 0 0 0 0 0 0 0 0 0 0 0 0 0 0 0 0 0
0 0 0 0 1 2 3 3 3 2 1 0 0 0 0 0 0 0 0 0 0 0 0 0 0 0 0 0 0 0 0 0 0 0 0 0 0 0 0 0 0 0 0
0 0 0 0 1 2 3 3 2 1 0 0 0 0 0 0 0 0 0 0 0 0 0 0 0 0 0 0 0 0 0 0 0 0 0 0 0 0 0 0 0 0 0
Wind_Speed
5 5 4 4 4 3 3 3 3 3 3 3 4 4 4 4 3 3 3 3 3 3 3 3 3 2 2 2 2 2 2 2 2 2 1 1 1 1 0 1 2 2 2
5 5 5 4 4 3 3 3 3 3 3 3 4 4 4 3 3 3 3 3 3 3 2 2 2 2 2 2 2 2 2 2 3 2 2 1 1 1 1 2 2 2 1
5 5 5 4 4 4 3 3 3 3 3 3 3 3 3 3 3 3 3 2 2 2 2 2 2 2 2 2 2 2 2 2 3 3 2 1 1 1 1 2 1 2 3
5 5 5 4 4 3 3 3 3 3 3 3 3 3 3 3 2 2 3 2 2 2 1 1 1 1 2 2 2 2 2 2 2 3 2 1 1 1 2 2 2 2 2
5 5 5 4 3 3 3 3 3 3 3 3 3 3 3 2 2 1 2 3 2 2 2 1 1 2 3 1 2 1 2 2 3 3 2 2 1 1 2 3 2 2 2
4 4 5 4 4 3 3 3 3 3 3 3 3 3 2 3 4 3 1 2 2 1 1 1 2 3 3 2 1 2 2 2 2 2 2 2 2 3 2 3 3 3 2
4 4 4 4 4 3 3 3 3 3 3 3 2 3 3 3 4 2 1 0 1 1 1 1 1 2 1 1 2 3 2 1 2 3 3 3 3 3 4 4 3 4 3
4 4 4 4 4 3 3 3 2 2 2 2 2 2 2 3 3 2 1 2 1 1 1 1 1 1 1 1 1 1 1 2 2 3 2 3 3 3 4 5 4 4 4
5 4 4 3 3 3 3 3 2 2 2 2 2 2 2 2 3 2 3 3 2 2 2 2 2 2 2 1 3 2 2 2 3 2 1 2 2 3 4 4 4 4 4
4 4 4 3 3 3 3 2 2 2 2 2 2 2 2 2 3 3 3 3 2 2 2 2 2 1 1 1 4 3 3 2 2 2 4 5 5 5 5 5 5 5 4
4 4 4 3 3 3 3 2 2 2 2 1 1 1 1 1 3 4 3 3 2 2 2 2 2 4 1 2 4 3 2 3 4 4 3 3 4 3 4 4 4 4 4
3 4 4 3 3 3 3 3 2 2 3 2 2 2 2 2 1 3 4 4 4 3 2 1 2 4 2 3 4 2 3 5 5 4 3 3 3 2 2 3 3 4 4
3 3 3 3 3 3 3 4 3 3 2 2 2 2 1 1 3 4 6 5 5 4 2 1 0 4 5 5 6 5 5 5 4 4 3 3 2 2 3 3 4 5 6
4 3 3 3 3 3 2 3 3 2 1 1 1 2 1 1 1 1 3 4 5 5 3 3 5 6 5 4 4 5 5 3 4 4 3 3 3 3 3 3 4 4 4
3 3 3 3 3 3 2 0 1 0 1 2 2 2 2 2 2 3 2 2 2 1 3 3 3 4 4 4 3 3 3 4 4 4 3 3 3 3 3 3 3 4 4
3 3 3 3 2 2 2 2 3 1 2 1 2 4 2 2 1 1 1 2 2 2 4 4 3 3 3 3 3 3 3 3 4 4 4 4 4 4 3 3 3 4 4
3 2 2 2 2 2 2 2 2 3 3 2 2 2 2 1 1 2 2 3 4 4 4 4 3 3 3 3 3 3 3 3 3 4 4 4 4 4 4 3 3 4 4
3 3 2 2 2 2 2 2 2 2 2 3 4 4 4 4 4 4 4 4 4 5 4 4 3 3 3 3 3 3 3 3 4 4 4 4 4 4 4 4 4 4 5
2 2 2 1 2 2 2 2 2 2 2 2 1 3 4 5 5 5 5 4 4 4 4 4 3 3 3 3 3 3 4 4 4 4 4 4 4 4 4 5 5 4 6
3 2 2 2 2 2 2 2 2 2 2 2 2 2 2 3 3 3 4 4 4 4 4 4 3 3 3 3 3 3 4 4 4 4 4 4 4 4 5 6 6 5 5
3 4 5 4 3 2 2 2 2 3 2 2 2 1 2 3 3 3 3 3 3 3 3 4 4 3 3 3 3 4 4 4 4 4 4 4 4 4 5 6 6 5 5
3 3 3 3 2 2 2 3 3 3 3 3 3 2 5 4 4 3 3 3 3 3 3 3 3 3 3 3 3 4 4 4 4 4 5 5 5 5 5 6 5 5 5
4 3 3 3 3 2 3 3 3 3 3 3 3 2 3 3 3 3 3 2 2 2 2 2 3 3 3 3 3 4 4 4 4 4 5 5 5 5 5 6 6 6 6
3 3 3 2 3 3 3 3 3 3 3 3 3 2 2 2 3 3 2 2 2 2 2 2 2 3 4 4 3 3 2 3 5 4 5 6 6 5 5 5 6 6 6
3 3 3 3 3 3 3 3 3 3 3 3 2 2 2 2 2 2 2 1 2 2 2 2 1 2 3 3 3 3 3 3 3 5 6 6 6 6 7 7 5 5 5
3 3 3 2 2 3 3 3 3 3 2 2 2 2 2 2 2 1 1 1 1 1 1 1 2 2 2 2 3 3 1 1 2 4 6 6 6 5 6 6 7 6 6
Wind_Direction
140 137 131 137 143 145 140 134 131 134 142 150 152 151 151 153 158 162 170 164 176 181 185 180 191 215 221 237 244 247 251 257 259 286 298 123 182 291 9 291 269 251 156
137 136 134 136 139 141 129 122 126 130 132 137 146 147 149 149 155 162 170 170 183 190 188 192 197 193 198 230 233 241 245 253 255 260 271 252 240 246 240 261 264 266 255
137 137 135 135 133 129 123 127 129 128 126 129 133 134 133 135 150 167 171 177 185 188 195 205 205 203 210 215 226 231 233 234 236 245 253 261 255 250 246 246 254 270 264
139 137 135 135 134 135 134 134 136 131 130 132 134 134 133 135 146 153 151 152 157 159 167 185 208 222 220 221 226 226 226 237 230 242 252 244 245 247 260 262 244 226 258
144 139 136 138 136 137 135 133 137 141 138 135 134 133 133 133 102 106 148 146 153 162 161 169 124 59 34 349 305 267 235 238 233 229 235 243 245 254 261 266 269 264 230
149 144 138 142 140 135 132 130 132 133 130 131 128 122 116 93 71 45 347 134 148 159 158 164 159 157 136 138 59 19 330 268 259 254 250 264 271 267 268 272 276 270 259
147 144 142 147 142 145 148 136 130 137 138 133 134 132 119 99 98 93 351 276 160 155 166 198 230 106 166 181 159 180 203 250 275 273 271 276 277 281 282 272 270 278 288
147 146 147 147 147 150 151 141 133 131 135 140 146 146 148 125 122 139 252 214 199 184 188 183 210 211 71 334 252 210 221 191 219 240 270 277 286 297 277 273 274 257 253
148 147 145 148 150 155 151 142 141 142 150 163 164 166 172 152 141 168 248 212 188 206 211 190 214 207 84 317 248 238 242 214 176 183 286 295 322 303 289 274 263 259 261
149 147 142 143 147 151 142 145 146 167 177 177 159 171 182 175 150 177 239 235 204 206 194 184 150 187 116 254 248 247 247 253 266 208 212 221 228 218 226 256 273 273 276
145 142 141 141 148 147 145 149 166 186 175 186 182 179 188 183 161 176 221 254 247 236 215 201 145 144 162 229 261 261 279 283 260 253 241 228 219 215 218 231 263 281 287
142 145 143 146 159 147 155 168 182 197 191 192 202 217 193 182 179 166 190 233 278 261 263 257 128 148 190 233 243 258 262 261 255 253 251 243 242 244 245 250 252 265 278
148 152 153 155 156 161 174 178 189 202 222 212 214 219 207 180 152 165 186 209 234 252 277 4 186 194 213 220 218 234 239 243 252 254 257 259 261 264 259 244 240 240 245
157 161 164 168 168 166 196 198 205 209 230 247 257 264 253 220 212 170 188 196 204 223 244 199 202 213 227 237 213 215 231 247 258 258 264 264 258 251 248 257 257 250 252
163 176 187 186 168 170 183 216 244 158 354 300 296 280 277 271 31 12 317 277 266 248 249 234 220 211 213 215 217 222 229 228 234 248 257 261 261 261 258 255 267 272 268
174 186 198 197 179 196 181 156 84 68 88 59 322 311 330 43 77 342 300 291 272 251 241 235 231 232 234 233 236 229 227 233 243 249 257 265 269 269 266 265 265 272 274
176 184 213 203 192 207 207 207 181 160 172 198 219 245 258 264 236 225 235 247 239 224 233 239 240 242 244 245 248 251 246 242 256 259 260 263 266 268 265 264 265 268 271
183 171 211 208 215 218 213 222 229 227 205 195 184 192 203 213 221 226 223 219 216 214 240 247 248 251 254 255 258 258 256 246 243 252 255 258 263 265 264 264 263 271 275
195 182 205 229 225 225 227 231 235 232 243 238 204 163 187 201 208 215 211 235 248 239 239 244 249 255 261 261 262 260 257 254 252 253 252 255 259 262 266 271 270 262 268
194 172 222 239 232 227 228 233 239 233 232 233 230 214 175 204 218 203 210 239 255 256 250 247 248 254 257 259 259 259 256 254 249 249 254 255 256 261 263 267 274 273 268
197 173 198 229 232 235 235 235 240 249 248 246 244 205 207 246 249 249 249 246 254 260 260 256 249 242 245 250 252 252 256 258 253 253 257 259 259 261 266 265 264 269 274
218 202 202 219 223 229 242 242 246 249 245 245 248 193 184 237 261 267 265 265 262 264 267 261 258 255 253 254 255 252 252 253 255 258 262 265 265 266 266 267 272 273 271
223 217 208 212 225 213 231 240 244 249 248 243 245 250 227 243 257 262 267 275 284 282 282 274 269 269 263 256 259 261 263 264 267 270 268 266 268 269 270 269 267 268 271
218 216 215 216 227 229 232 240 247 254 256 249 246 253 259 257 265 277 287 296 294 289 288 286 284 287 288 279 271 272 299 307 292 276 272 274 275 274 272 271 269 269 269
228 223 226 230 236 234 238 246 249 250 254 258 262 263 267 273 275 280 283 285 289 297 302 299 301 304 309 308 311 338 24 7 324 302 280 271 273 276 277 273 270 270 270
234 236 242 242 241 244 245 247 244 241 242 248 256 265 271 271 274 276 281 291 296 300 302 309 329 335 337 337 1 9 21 355 317 296 283 275 273 272 277 276 276 271 269